CZ-6A R/B, 66051

Orbit data source: Space-Track

CZ-6A R/B, 66051 is space debris in LEO originally from a launch on Fri, 17 Oct 2025 UTC launched from the Taiyaun Space Center, China (TSC). Debris objects in space refer to the collection of defunct objects orbiting the Earth. Examples of debris include non-operational satellites, rocket bodies, and fragments generated from explosions, collisions, or faulty payload assembly.

Loading next visibility...
Identifier
66051, 2025-233U
Orbit
LEO
Country
Flag of CNCN / PRC
Related business
Manufacturer
SAST
Mission
Spacecraft
Bus & Motor
CZ-6A STAGE 2, YF-115
Mass
~6,000 kg wet, ~6,000 kg dry
Launch date (UTC)
2025-10-17 (8 months ago)
Launch vehicle
Unknown
Launch site
Taiyaun Space Center, China (TSC)
Object type
Payload
Rocket body
Debris
Shape & HBR
Unknown shape, 8.0 m
Radar Cross Section
Large (>1 m²)

Expand to show TLE details & history
Last TLE update: 11 hours ago

TLE from 11 hours ago
0 CZ-6A R/B
1 66051U 25233U   26177.58411164  .00000211  00000-0  41105-4 0  9995
2 66051  89.0330  39.0145 0082201 331.1292  28.5382 14.57200921 36737
Epoch: 2026-06-26T14:01Z
TLE epoch observation values (Epoch: 2026-06-26T14:01:07.245Z)
Latitude
-0.00005°
Longitude
-85.97621°
Altitude
654.302 km
Speed
7.557 km/s
True Right ascension
02h 36m 03s
True Declination
0° 00' 00"
Sunlit
Object was in daylight at epoch
Visualization orbit readout
Latitude
Unknown
Longitude
Unknown
Altitude
Unknown
Speed
Unknown
Apparent Right ascension
Unknown
Apparent Declination
Unknown
Sunlit
N/A
Visualization observer readout
Local Sidereal Time
12:12:21
Azimuth
Unknown
Elevation
Unknown
Doppler factor
Unknown
Orbital elements
Apogee altitude
757.3 km
Perigee altitude
640.948 km
Semi-major axis
7,077.261 km
Eccentricity
0.00822
Inclination
89.033°
RAAN
39.0145°
Arg. of periapsis
331.1292°
True anomaly
28.99231°
Mean anomaly
28.5382°
Eccentric anomaly
28.76484°
Mean motion
3.6454 °/min
Orbital period
98.75 mins
BSTAR
0.000041105
Loading maneuver chart data...
Computing Atmospheric mass density...
Loading historical data...
Loading historical data...
Loading historical data...
Loading historical data...
Loading historical data...
Loading historical data...
Loading historical data...

Documentation

Showing up to 5 results
|